ORBCOMM FM 16 DEB

Satellite information

Favourite Embed

Satellite Type and Status

DEBRISIN ORBIT

Key statistics

Satellite ORBCOMM FM 16 DEB at a glance.

Uptime

9834

Days in orbit

Revolutions

≈ 14.3

Per day

Orbit

LEO

Low Earth Orbit

Inclination

45.0

Latest

Satellite identification and parameters

Extended collection of information and parameters for ORBCOMM FM 16 DEB.

Object identification

Identified? True

Debris? True

Object name: ORBCOMM FM 16 DEB

International designator: 1998-046S

Object number (NORAD): 44023

Object ID (CCSDS): 44023

Country: ORBITAL TELECOMMUNICATIONS SATELLITE (GLOBALSTAR) (ORB)

Current information (Y/N): Y

RCS size: SMALL

Orbital parameters

Period: 100.393 minutes

Inclination: 45.0034 deg

SMA: 7155.327 km

Apoapsis: 781.319 km

Periapsis: 773.065 km

RAAN: 144.8942 deg

Eccentricy: 0.0005768

Argument of periapsis: 176.9083 deg

Mean anomaly: 183.1801 deg

Mean motion: 14.34361145 rev/day

Mean motion (dot): 0.00000383 rev/day2

B* drag term: 0.00018483 1/REarth

Two-line elements (TLE)

Creation date: July 4, 2025, 6:39 p.m.

Reference frame: TEME

Reference center: EARTH

Epoch: July 4, 2025, 6:18 a.m. UTC

TLE line 0: 0 ORBCOMM FM 16 DEB

TLE line 1: 1 44023U 98046S 25185.26255860 .00000383 00000-0 18483-3 0 9996

TLE line 2: 2 44023 45.0034 144.8942 0005768 176.9083 183.1801 14.34361145339507

Live tracking on map

Real-time ground track for satellite ORBCOMM FM 16 DEB.

In-orbit conjunctions

A list of the most updated potential collisions computed for object ORBCOMM FM 16 DEB.

Target Orbit TCA Probability of collision Miss distance Type
THOR BURNER 2 R/B SSO 2025-03-02 10:04:00 0.000117704 595.0 (m) ROCKET BODY
FENGYUN 1C DEB SSO 2024-11-18 09:47:41 0.0003340408 128.0 (m) DEBRIS
DMSP 5D-2 F13 DEB SSO 2024-11-15 10:23:29 0.001407841 339.0 (m) DEBRIS

Associated space launch

ORBCOMM FM 16 DEB was lifted into orbit during the mission ‘Pegasus XL HAPS | Orbcomm-B1 - B8’, on board a Pegasus XL HAPS space rocket.

The launch took place on Aug. 2, 1998, 4:24 p.m. from Wallops Flight Facility.

For more information about the launch, click the button.

Launch to space Pegasus XL HAPS | Orbcomm-B1 - B8
Pegasus XL HAPS | Orbcomm-B1 - B8

Agency: N/A

Status: Launch Successful

Launch date: Aug. 2, 1998, 4:24 p.m. UTC

Rocket: Pegasus XL HAPS

Launch pad: Wallops Flight Facility

Location: Air launch to orbit

...

Latest news about this satellite

There are no fresh news available about this satellite. Check back as we update our databases every day.


Newsletter sign-up

Weekly statistics, charts and insights to help you stay on top of the space industry.